OE3MHU-12 Weather Reports


time (UTC)temp
F
wind
direction
speed
knots
gust
knots
rain 1hr
in
rain 24hr
in
rain mn
in
humidity
%
barometer
mb
20260507062528 57 295 5.2 11.3 0.00 0.00 0.00 67 1010.0
20260507055528 55 270 4.3 7.8 0.00 0.00 0.00 71 1009.7
20260507052528 54 273 5.2 11.3 0.00 0.00 0.00 73 1009.4
20260507045528 53 258 1.7 4.3 0.00 0.00 0.00 76 1009.3
20260507042528 53 275 3.5 7.8 0.00 0.00 0.00 77 1008.8
20260507035529 52 270 0.9 2.6 0.00 0.00 0.00 80 1008.5
20260507032529 52 272 0.0 0.0 0.00 0.00 0.00 82 1008.3
20260507025529 52 272 0.0 0.0 0.00 0.00 0.00 81 1008.1
20260507022529 53 271 0.9 1.7 0.00 0.00 0.00 80 1007.9
20260507015529 54 298 0.9 2.6 0.00 0.00 0.00 79 1007.7
20260507012529 54 294 2.6 6.1 0.00 0.00 0.00 77 1007.4
20260507005529 55 318 5.2 7.8 0.00 0.00 0.00 76 1007.0
20260507002529 55 317 0.9 3.5 0.00 0.00 0.00 77 1006.9
20260506235741 56 266 1.7 4.3 0.00 0.00 0.00 76 1006.7
20260506235529 56 266 1.7 4.3 0.00 0.00 0.00 76 1006.7
20260506232529 57 262 3.5 7.0 0.00 0.00 0.00 76 1006.3
20260506225529 57 279 1.7 7.0 0.00 0.00 0.00 74 1006.3
20260506222530 56 290 2.6 8.7 0.00 0.00 0.00 74 1005.9
20260506215530 57 275 2.6 7.0 0.00 0.00 0.00 74 1005.3
20260506212530 58 304 1.7 5.2 0.00 0.00 0.00 74 1004.7
20260506205530 59 286 3.5 7.0 0.00 0.00 0.00 72 1004.2
20260506202530 60 290 6.1 8.7 0.00 0.00 0.00 70 1004.0
20260506195530 64 320 7.0 18.2 0.00 0.00 0.00 62 1003.7
20260506192530 65 145 0.0 0.9 0.00 0.00 0.00 52 1002.4
20260506185530 68 145 0.0 0.9 0.00 0.00 0.00 48 1001.8
20260506182530 69 132 0.9 3.5 0.00 0.00 0.00 47 1001.0
20260506175530 71 189 0.0 1.7 0.00 0.00 0.00 43 1000.9
20260506172530 73 172 1.7 5.2 0.00 0.00 0.00 40 1000.7
20260506165530 75 104 1.7 3.5 0.00 0.00 0.00 41 1000.9
20260506162531 76 129 1.7 4.3 0.00 0.00 0.00 41 1001.1
20260506155531 76 112 3.5 7.0 0.00 0.00 0.00 42 1001.1
20260506152531 74 87 2.6 7.0 0.00 0.00 0.00 46 1001.7
20260506145531 73 54 2.6 6.1 0.00 0.00 0.00 46 1001.9
20260506142531 76 93 4.3 10.4 0.00 0.00 0.00 43 1002.3
20260506135531 73 73 2.6 7.8 0.00 0.00 0.00 49 1002.5
20260506132531 76 105 1.7 6.1 0.00 0.00 0.00 43 1002.9
20260506125531 76 107 2.6 7.0 0.00 0.00 0.00 43 1003.2
20260506122531 76 65 3.5 7.0 0.00 0.00 0.00 45 1003.6
20260506115531 74 83 3.5 10.4 0.00 0.00 0.00 47 1003.9
20260506112532 75 173 4.3 9.6 0.00 0.00 0.00 45 1004.3
20260506105532 73 189 2.6 8.7 0.00 0.00 0.00 43 1004.5
20260506102532 72 143 1.7 6.1 0.00 0.00 0.00 46 1004.7
20260506092532 71 127 1.7 5.2 0.00 0.00 0.00 51 1005.1
20260506085532 71 137 1.7 4.3 0.00 0.00 0.00 54 1005.3
20260506082532 69 148 1.7 6.1 0.00 0.00 0.00 55 1005.7
20260506072532 66 136 0.9 3.5 0.00 0.00 0.00 62 1006.1